Date,TemperatureHighF,TemperatureAvgF,TemperatureLowF,DewpointHighF,DewpointAvgF,DewpointLowF,HumidityHigh,HumidityAvg,HumidityLow,PressureMaxIn,PressureMinIn,WindSpeedMaxMPH,WindSpeedAvgMPH,GustSpeedMaxMPH,PrecipitationSumIn
2014-1-1,22,15,8,9,7,5,91,72,53,30.41,30.12,20,4,22,0.00
2014-1-2,14,2,-3,8,-1,-6,89,86,72,30.44,29.99,27,7,27,0.00
2014-1-3,9,2,-3,2,-4,-10,89,76,56,30.38,29.84,20,9,28,0.00
2014-1-4,-3,-4,-4,-8,-9,-10,83,78,73,30.39,30.38,2,1,2,0.00
2014-1-5,32,28,13,30,21,-100,97,76,51,30.31,0.00,7,-5,12,0.01
2014-1-6,52,44,30,52,43,18,100,97,60,30.04,29.21,23,5,25,1.11
2014-1-7,30,15,5,20,-1,-9,72,50,39,30.10,29.38,21,9,34,0.00
2014-1-8,21,12,5,5,-3,-100,66,55,46,30.40,30.10,13,-24,24,0.00
2014-1-9,26,17,12,9,6,4,73,63,43,30.64,30.38,8,3,14,0.00
2014-1-10,31,25,10,29,22,5,94,86,67,30.60,30.28,14,2,16,0.00
2014-1-11,51,40,31,51,40,29,100,98,93,30.29,29.18,21,3,21,0.13
2014-1-12,50,44,36,50,34,26,100,70,46,29.89,29.20,30,6,35,0.00
2014-1-13,46,39,33,41,32,26,95,75,57,30.10,29.88,20,3,20,0.00
2014-1-14,46,43,40,45,42,40,100,97,94,29.90,29.56,21,4,21,0.87
2014-1-15,46,38,32,40,36,32,99,93,72,30.02,29.68,13,1,14,0.01
2014-1-16,36,34,31,36,34,31,100,99,98,29.95,29.87,11,1,11,0.00
2014-1-17,43,37,32,37,33,26,99,88,67,29.96,29.88,15,2,15,0.01
2014-1-18,34,32,30,32,30,25,98,93,77,29.93,29.67,9,1,9,0.00
2014-1-19,33,30,28,32,28,24,98,92,81,29.71,29.45,19,2,24,0.00
2014-1-20,38,31,14,30,24,3,86,77,53,29.88,29.47,22,5,22,0.04
2014-1-21,15,10,5,4,-1,-5,70,60,46,30.09,29.88,19,4,19,0.00
2014-1-22,18,10,5,3,-1,-4,74,62,46,29.95,29.63,26,8,27,0.00
2014-1-23,21,10,0,5,-1,-6,77,62,44,30.09,29.85,15,4,15,0.00
2014-1-24,19,9,2,2,-2,-5,76,59,41,30.21,30.03,14,3,14,0.00
2014-1-25,36,26,15,29,18,2,93,71,52,30.03,29.23,24,5,24,0.00
2014-1-26,25,18,14,20,3,-7,82,53,36,29.90,29.24,31,7,32,0.00
2014-1-27,40,27,19,36,16,-3,95,65,32,29.94,29.46,29,5,29,0.01
2014-1-28,19,15,10,0,-3,-6,55,45,36,30.29,29.94,25,4,25,0.00
2014-1-29,25,17,13,2,-2,-5,57,43,28,30.22,29.91,23,4,23,0.00
2014-1-30,27,19,10,13,7,-1,67,58,46,30.42,30.16,22,3,23,0.00
2014-1-31,38,31,23,23,18,12,85,62,42,30.18,29.97,21,4,26,0.00